#timestamp,LO_Frequency,Hit,StdDev 
1654416015.5,286046999.5,N
1654416035.3,286046999.5,N
1654416055.2,286046996.7,N
1654416075.0,286046996.6,N
1654416075.9,286046996.6,N
1654416095.8,286046999.1,N
1654416115.6,286046998.7,N
1654416135.4,286046998.5,N
1654416155.3,286046998.4,N
1654416175.1,286046999.3,N
1654416195.9,286046998.3,N
1654416215.7,286047001.2,N
1654416235.5,286046998.4,N
1654416255.4,286046998.2,N
1654416275.2,286047000.6,N
1654416295.1,286047000.8,N
1654416296.0,286047000.8,N
1654416315.8,286047001.0,N
1654416335.6,286047000.7,N
1654416355.5,286046998.5,N
1654416375.3,286046998.6,N
1654416395.2,286046998.7,N
1654416415.9,286046998.7,N
1654416435.7,286046999.0,N
1654416455.6,286046998.1,N
1654416475.4,286046998.4,N
1654416495.2,286046999.2,N
1654416515.1,286046996.9,N
1654416516.0,286046996.9,N
1654416535.8,286046996.9,N
1654416555.7,286046999.3,N
1654416575.5,286046998.3,N
1654416595.3,286046998.1,N
1654416615.2,286046996.9,N
1654416635.0,286046998.9,N
1654416635.9,286046998.9,N
1654416655.8,286046998.3,N
1654416675.6,286046998.8,N
1654416695.4,286046998.3,N
1654416715.3,286046996.5,N
1654416735.1,286046999.4,N
1654416755.8,286046998.4,N
1654416775.7,286046999.1,N
1654416795.5,286046999.5,N
1654416815.4,286046997.2,N
1654416835.2,286046997.1,N
1654416855.0,286046996.7,N
1654416855.9,286046996.7,Y
1654416875.8,286047001.2,P
1654416895.6,286046998.5,N
1654416915.4,286047001.1,N
1654416935.3,286046998.1,N
1654416955.1,286047000.8,N
1654416975.9,286046998.4,N
1654416995.7,286047001.0,N
1654417015.5,286047000.4,N
1654417035.4,286046999.8,N
1654417055.2,286047002.8,N
1654417075.0,286047002.8,N
1654417075.9,286047002.8,N
1654417095.8,286047002.6,N
1654417115.6,286047004.4,N
1654417135.5,286047001.7,N
1654417155.3,286047001.7,N
1654417175.1,286047001.3,N
1654417195.9,286047004.4,N
1654417215.7,286047001.6,N
1654417235.6,286047002.5,N
1654417255.4,286047002.4,N
1654417275.2,286046999.8,N
1654417295.1,286047002.5,N
1654417296.0,286047002.5,N
1654417315.8,286047002.0,N
1654417335.6,286047001.7,N
1654417355.5,286047002.2,N
1654417375.3,286047002.7,N
1654417395.2,286047002.3,N
1654417415.9,286047002.4,N
1654417435.7,286046999.7,N
1654417455.6,286047000.1,N
1654417475.4,286047002.8,N
1654417495.2,286046998.1,N
1654417515.1,286046998.6,N
1654417516.0,286046998.6,N
1654417535.8,286047000.5,N
1654417555.7,286047000.4,N
1654417575.5,286047001.2,N
1654417595.3,286047001.2,N
1654417615.2,286047000.3,N
1654417635.0,286047001.0,N
1654417635.9,286047001.0,N
1654417655.8,286047001.0,N
1654417675.6,286046998.5,N
1654417695.4,286046999.8,N
1654417715.3,286047001.6,N
1654417735.1,286047001.6,N
1654417755.9,286047002.2,N
1654417775.7,286047001.8,N
1654417795.5,286047001.8,N
1654417815.4,286047002.5,N
1654417835.2,286047002.1,N
1654417855.0,286047001.9,N
1654417855.9,286047001.9,N
1654417875.8,286047001.7,N
1654417895.6,286047004.3,Y
1654417915.5,286047002.3,P
1654417935.3,286047002.6,P
1654417955.1,286047001.9,N
1654417975.9,286047002.5,Y
1654417995.7,286046998.3,P
1654418015.6,286046998.6,N
1654418035.4,286046998.5,N
1654418055.2,286046998.6,N
1654418075.1,286047000.4,N
1654418076.0,286047000.4,N
1654418095.8,286046999.9,N
1654418115.6,286047000.1,N
1654418135.5,286047001.0,N
1654418155.3,286047000.9,N
1654418175.2,286046998.7,N
1654418195.9,286046998.7,N
1654418215.7,286046998.5,N
1654418235.6,286046998.2,N
1654418255.4,286046999.1,N
1654418275.2,286046999.2,N
1654418295.1,286046997.0,N
1654418296.0,286046997.0,N
1654418315.8,286046999.3,N
1654418335.7,286047008.5,Y
1654418355.5,286047012.0,P
1654418375.4,286047010.4,N
1654418395.2,286047006.8,N
1654418415.0,286047005.6,N
1654418415.9,286047005.6,N
1654418435.8,286047003.9,N
1654418455.6,286047001.7,N
1654418475.4,286047001.9,N
1654418495.3,286047001.4,N
1654418515.1,286047001.9,N
1654418535.9,286047002.2,N
1654418555.7,286047000.1,N
1654418575.5,286047002.6,N
1654418595.4,286047000.3,N
1654418615.2,286046999.9,N
1654418635.1,286047002.1,N
1654418636.0,286047002.1,N
1654418655.8,286047001.5,N
1654418675.6,286047001.5,N
1654418695.5,286047001.7,N
1654418715.3,286047002.7,N
1654418735.1,286047000.5,N
1654418755.9,286047000.7,N
1654418775.7,286047000.2,N
1654418795.6,286047000.5,N
1654418815.4,286046999.9,N
1654418835.2,286046999.9,N
1654418855.1,286047000.9,N
1654418856.0,286047000.9,N
1654418875.8,286047000.6,N
1654418895.7,286046998.1,N
1654418915.5,286046998.2,N
1654418935.3,286046998.2,N
1654418955.2,286046999.0,N
1654418975.0,286046998.2,N
1654418975.9,286046998.2,N
1654418995.8,286046998.2,N
1654419015.6,286047000.7,N
1654419035.4,286047001.0,N
1654419055.3,286047000.8,N
1654419075.1,286047000.8,N
1654419095.8,286047000.1,N
1654419115.7,286046999.8,N
1654419135.5,286047002.6,N
1654419155.4,286047002.1,N
1654419175.2,286047002.8,N
1654419195.0,286047000.5,N
1654419195.9,286047000.5,N
1654419215.8,286046998.1,N
1654419235.6,286046996.5,N
1654419255.4,286046996.9,N
1654419275.3,286046999.0,N
1654419295.1,286046999.1,N
1654419315.9,286046998.7,N
1654419335.7,286046998.8,N
1654419355.5,286046999.3,N
1654419375.4,286046999.4,N
1654419395.2,286046999.2,N
1654419415.0,286046996.7,N
1654419415.9,286046996.7,N
1654419435.8,286046996.8,N
1654419455.6,286046996.9,N
1654419475.5,286046999.5,N
1654419495.3,286046997.0,N
1654419515.1,286046996.6,N
1654419535.9,286046997.2,N
1654419555.7,286046999.4,N
1654419575.5,286046999.6,N
1654419595.4,286046999.1,N
